[[{"header":{"parameterUnit":"m.s-1","parameterCategory":1,"la1":30.2992,"la2":30.254,"lo1":-89.0895,"lo2":-89.0443,"dy":0.0025,"dx":0.0025,"nx":19,"ny":19,"refTime":"2026-05-17T03:00:00:Z","depth":0,"parameterNumber":2,"parameterNumberName":"U-component_of_WINDS"},"data":[0,0,0,-4.9559,-4.9562,-4.9672,-4.9672,-4.9823,-4.9825,0,0,0,0,0,0,0,0,0,0,0,-4.9534,-4.9535,-4.9559,-4.9562,-4.9672,-4.9672,-4.9823,-4.9825,0,0,0,0,0,0,0,0,0,0,0,-4.9534,-4.9535,-4.9537,-4.9562,-4.9672,-4.9672,-4.9823,-4.9735,0,0,0,0,0,0,0,0,0,0,-4.9626,-4.9611,-4.9535,-4.9537,-4.9563,-4.9672,-4.9672,-4.9731,-4.9741,-4.9778,0,-4.9815,0,-4.9823,-4.9836,-4.9836,0,0,0,-4.9555,-4.9603,-4.9626,-4.9537,-4.9564,-4.9672,-4.962,-4.9736,-4.9747,-4.9791,-4.9817,-4.9822,-4.9825,-4.9837,-4.9837,-5.008,-5.0081,0,0,-4.9549,-4.9557,-4.9619,-4.9634,-4.962,-4.9617,-4.9624,-4.9743,-4.9771,-4.9818,-4.9826,-4.9828,-4.9838,-4.9839,-5.0078,-5.008,0,0,0,-4.9536,-4.9553,-4.9573,-4.9628,-4.9648,-4.962,-4.9628,-4.9765,-4.9771,-4.9827,-4.9829,-4.9839,-4.9841,-5.0077,-5.0079,-5.0157,0,0,0,-4.9532,-4.9546,-4.9571,-4.9577,-4.9646,-4.9708,-4.9649,-4.9763,-4.9776,-4.9829,-4.9839,-4.9842,-5.0075,-5.0078,-5.0152,-5.0191,0,0,0,-4.9524,-4.9545,-4.9564,-4.9577,-4.9626,-4.9706,-4.9719,-4.9766,-4.9778,-4.9836,-4.9843,-5.0074,-5.0077,-5.0147,-5.0183,-5.0256,0,0,0,-4.9517,-4.9631,-4.9565,-4.9694,-4.9625,-4.9756,-4.9718,-4.9815,-4.9874,-4.9839,-5.0075,-5.0079,-5.0145,-5.0178,-5.0251,-5.0316,-5.0345,0,0,-4.9665,-4.9649,-4.9724,-4.9669,-4.9813,-4.9738,-4.9894,-4.9939,-4.9936,-5.0032,-5.0037,-5.0153,-5.0182,-5.0255,-5.0512,-5.0535,0,0,0,-4.9774,-4.9827,-4.9864,-4.9922,-4.9962,-4.9998,-5.002,-5.0037,-5.0118,-4.9988,-5.0201,-5.0218,-5.026,-5.029,-5.031,-5.0344,-5.0094,-5.0094,-5.0094,-4.9991,-4.9985,-5.0107,-5.0114,-5.0171,-5.0194,-5.0239,-5.0265,-5.0239,-5.0291,-5.0317,-5.0474,-5.0511,-5.0526,-5.0561,-5.0354,-5.0355,-5.0355,-5.0355,-5.0205,-5.0278,-5.0245,-5.0352,-5.0343,-5.0432,-5.0459,-5.0438,-5.0518,-5.0453,-5.049,-5.0416,-5.0551,-5.0582,-5.0361,-5.036,-5.0359,-5.0359,-5.0358,-5.0343,-5.0377,-5.0399,-5.0483,-5.0549,-5.0553,-5.0632,-5.0622,-5.0612,-5.0649,-5.0674,-5.0673,-5.0667,-5.0663,-5.0663,-5.0664,-5.0664,-5.0665,-5.0665,-5.0476,-5.0498,-5.0567,-5.0622,-5.0658,-5.0705,-5.0732,-5.0767,-5.0803,-5.0788,-5.0789,-5.0756,-5.0568,-5.0519,-5.0673,-5.0672,-5.0671,-5.067,-5.0669,-5.0687,-5.0639,-5.0745,-5.0782,-5.0845,-5.0911,-5.09,-5.0972,-5.1,-5.1039,-5.1002,-5.0866,-5.0847,-5.0831,-5.0789,-5.1005,-5.1005,-5.1005,-5.1005,-5.08,-5.0793,-5.0899,-5.0959,-5.1017,-5.1018,-5.1137,-5.116,-5.1174,-5.1191,-5.116,-5.1106,-5.109,-5.108,-5.1059,-5.102,-5.1289,-5.129,-5.129,-5.0928,-5.0926,-5.1029,-5.1046,-5.1096,-5.1137,-5.1248,-5.1317,-5.1324,-5.1301,-5.1203,-5.1191,-5.1104,-5.1076,-5.1045,-5.1013,-5.0941,0,0]},{"header":{"parameterUnit":"m.s-1","parameterCategory":1,"la1":30.2992,"la2":30.254,"lo1":-89.0895,"lo2":-89.0443,"dy":0.0025,"dx":0.0025,"nx":19,"ny":19,"refTime":"2026-05-17T03:00:00:Z","depth":0,"parameterNumber":3,"parameterNumberName":"V-component_of_WINDS"},"data":[0,0,0,2.9239,2.9241,2.9323,2.9323,2.9428,2.9429,0,0,0,0,0,0,0,0,0,0,0,2.9216,2.9217,2.9239,2.9241,2.9323,2.9323,2.9428,2.9429,0,0,0,0,0,0,0,0,0,0,0,2.9216,2.9217,2.9218,2.9242,2.9323,2.9323,2.9427,2.9365,0,0,0,0,0,0,0,0,0,0,2.9286,2.9266,2.9217,2.9218,2.9242,2.9323,2.9323,2.9362,2.9369,2.9391,0,2.9412,0,2.9422,2.9436,2.9436,0,0,0,2.924,2.926,2.9282,2.9218,2.9243,2.9323,2.9286,2.9366,2.9374,2.94,2.9414,2.9417,2.9424,2.9437,2.9437,2.9573,2.9574,0,0,2.9235,2.9231,2.9276,2.9287,2.9276,2.9283,2.9288,2.9371,2.9384,2.9414,2.942,2.9426,2.9437,2.9438,2.9572,2.9573,0,0,0,2.9223,2.9228,2.9247,2.9282,2.9297,2.9286,2.9292,2.9381,2.9388,2.9421,2.9427,2.9438,2.9439,2.9571,2.9573,2.9604,0,0,0,2.9221,2.9221,2.9245,2.9243,2.9296,2.934,2.9299,2.9382,2.9391,2.9426,2.9438,2.944,2.9571,2.9572,2.9602,2.9619,0,0,0,2.921,2.922,2.9232,2.9243,2.9278,2.9339,2.9351,2.9384,2.9395,2.9436,2.9441,2.957,2.9572,2.96,2.9616,2.9655,0,0,0,2.9198,2.9257,2.9233,2.9301,2.9278,2.9359,2.935,2.941,2.9449,2.9438,2.9571,2.9572,2.9599,2.9613,2.9653,2.9688,2.9702,0,0,2.927,2.9265,2.9306,2.9287,2.9372,2.9346,2.9435,2.9474,2.9481,2.9541,2.9545,2.9603,2.9615,2.9655,2.9782,2.9794,0,0,0,2.9328,2.9357,2.9381,2.9419,2.9452,2.9482,2.9508,2.9523,2.9575,2.9512,2.9627,2.9635,2.9658,2.9675,2.9685,2.9705,2.958,2.958,2.958,2.9422,2.9431,2.9499,2.9518,2.9555,2.9583,2.9614,2.9639,2.9633,2.9661,2.9679,2.9756,2.9775,2.9783,2.9804,2.9698,2.9698,2.9698,2.9698,2.9529,2.9572,2.9568,2.9633,2.9641,2.9695,2.9725,2.972,2.9771,2.9742,2.9763,2.973,2.9795,2.9814,2.9701,2.97,2.97,2.97,2.97,2.9592,2.9614,2.9633,2.9692,2.9736,2.9752,2.9803,2.9808,2.9812,2.9833,2.9853,2.9853,2.9853,2.9842,2.9843,2.9843,2.9843,2.9843,2.9843,2.965,2.967,2.9713,2.9756,2.9783,2.9818,2.9849,2.9875,2.9905,2.9904,2.9904,2.9897,2.98,2.9776,2.9848,2.9847,2.9846,2.9846,2.9846,2.9755,2.9733,2.9799,2.9827,2.9878,2.9922,2.9929,2.9982,3.0004,3.0029,3.0019,2.9946,2.9941,2.9933,2.9913,3.0016,3.0016,3.0016,3.0016,2.9809,2.9808,2.9878,2.9922,2.9965,2.9979,3.0054,3.0079,3.01,3.0115,3.0101,3.0074,3.0066,3.0066,3.0056,3.0037,3.017,3.017,3.017,2.9875,2.9879,2.9942,2.9965,3.0006,3.0041,3.0113,3.0162,3.0182,3.0176,3.0126,3.012,3.0078,3.0063,3.0055,3.0039,3.0005,0,0]}]]